Powrót do katalogu

TITAN 3C TRANSTAGE DEB

LostMEO
NORAD 38696·DEBRIS·🇺🇸 United States

Wystrzelony Sep 26, 1968 z Cape Canaveral Space Force Station

Loading…

Następne Przeloty (najbliższe 24 godziny)

TLE

NieaktualneSource: Space-Track

Epoka: Jul 23, 2024, 09:23 UTC

1 38696U 68081W   24205.39109024  .00000079  00000-0  00000-0 0  9992
2 38696   1.7308 347.5336 0207893 302.1970   0.0300  0.99495191 41774

Śledź TITAN 3C TRANSTAGE DEB w czasie rzeczywistym z AllMySat

Download on the App Store